Flag for Sweden Weather past 2 weeks in Malmö, Sweden

Now
45 °F

Clear.


Feels Like: 45 °F
Forecast: 54 / 69 °F
Wind: 2 mph from East

Location: Malmo / Sturup

Current Time: Sep 3, 2014 at 3:27:07 AM

Latest Report: Sep 3, 2014 at 2:50 AM


Visibility: 10 mi

Pressure: 30.36 "Hg

Humidity: 100%

Dew point: 45 °F

Location of MalmöLocation

Historic Weather in Malmö — Graph

°F

Malmö temperature yesterday

Maximum temperature yesterday: 66 °F (at 4:20 PM)
Minimum temperature yesterday: 46 °F (at 11:50 PM)
Average temperature yesterday: 56 °F

Past Weeks' High & Low Weather Summary

 TemperatureHumidityPressure
High68 °F (Aug 27, 2:50 PM)100% (Aug 22, 5:50 AM)30.36 "Hg (Aug 22, 5:50 AM)
Low43 °F (Aug 29, 4:20 AM)46% (Aug 27, 3:20 PM)29.47 "Hg (Aug 19, 1:20 AM)
Average57 °F80%29.87 "Hg
* Reported Aug 19 1:20 AM — Sep 3 1:50 AM, Malmö, Weather by CustomWeather, © 2014

Note: Actual official high and low records may vary slightly from our data, if they occured in-between our weather recording intervals... More about our weather records

Advertising

Malmö weather history for previous 24 hours

 ConditionsComfort  
Time TempWeatherWind HumidityBarometerVisibility
1:50 AM
Sep 3
46 °FLight fog.2 mph93%30.36 "Hg3 mi
1:20 AM46 °FClear.2 mph93%30.36 "Hg10 mi
12:50 AM46 °FFog.1 mph100%30.36 "Hg4 mi
12:20 AM46 °FFog.5 mph100%30.36 "Hg6 mi
11:50 PM
Sep 2
46 °FFog.1 mph100%30.36 "Hg3 mi
11:20 PM48 °FFog.1 mph100%30.33 "Hg4 mi
10:50 PM50 °FClear.2 mph94%30.36 "Hg10 mi
10:20 PM50 °FClear.2 mph94%30.33 "Hg10 mi
9:50 PM50 °FClear.1 mph94%30.33 "Hg10 mi
9:20 PM52 °FClear.1 mph94%30.33 "Hg10 mi
8:50 PM54 °FSunny.No wind88%30.33 "Hg10 mi
8:20 PM55 °FSunny.1 mph88%30.30 "Hg10 mi
7:50 PM59 °FSunny.3 mph72%30.30 "Hg10 mi
7:20 PM63 °FSunny.5 mph64%30.30 "Hg10 mi
6:50 PM63 °FSunny.6 mph64%30.30 "Hg10 mi
6:20 PM64 °FSunny.6 mph56%30.30 "Hg10 mi
5:50 PM64 °FPassing clouds.6 mph56%30.30 "HgN/A
5:20 PM64 °FPassing clouds.8 mph56%30.30 "HgN/A
4:50 PM64 °FPassing clouds.7 mph56%30.27 "HgN/A
4:20 PM66 °FScattered clouds.7 mph52%30.27 "HgN/A
3:20 PM64 °FScattered clouds.9 mph60%30.27 "HgN/A
2:50 PM64 °FSunny.8 mph60%30.27 "Hg10 mi
2:20 PM63 °FScattered clouds.7 mph64%30.27 "HgN/A
1:53 PM64 °FScattered clouds.8 mph60%30.27 "HgN/A
1:20 PM63 °FScattered clouds.8 mph64%30.27 "HgN/A
12:50 PM63 °FScattered clouds.8 mph64%30.27 "HgN/A
12:20 PM63 °FScattered clouds.9 mph68%30.27 "HgN/A
11:50 AM64 °FScattered clouds.10 mph64%30.27 "HgN/A
11:20 AM63 °FScattered clouds.12 mph73%30.27 "HgN/A
10:50 AM61 °FScattered clouds.10 mph77%30.27 "HgN/A
10:20 AM59 °FScattered clouds.9 mph82%30.27 "HgN/A
9:50 AM57 °FSunny.9 mph94%30.24 "Hg10 mi
9:20 AM55 °FSunny.8 mph94%30.24 "Hg10 mi
8:50 AM55 °FPartly sunny.9 mph100%30.24 "HgN/A
8:20 AM54 °FFog.7 mph100%30.24 "Hg6 mi
7:50 AM54 °FFog.7 mph94%30.24 "Hg5 mi
7:20 AM52 °FFog.7 mph100%30.24 "Hg4 mi
6:50 AM52 °FFog.6 mph100%30.21 "Hg1 mi
6:20 AM50 °FFog.7 mph100%30.21 "Hg0 mi
5:50 AM50 °FLight fog.6 mph100%30.21 "Hg1 mi
5:20 AM50 °FFog.6 mph100%30.18 "Hg1 mi
4:50 AM50 °FFog.6 mph100%30.18 "Hg1 mi
4:20 AM50 °FClear.5 mph94%30.18 "Hg10 mi
3:50 AM52 °FClear.6 mph94%30.18 "Hg10 mi
3:20 AM50 °FClear.3 mph100%30.18 "Hg10 mi
Weather by CustomWeather, © 2014

See weather overviewHow to use our weather pages